CDT,Max TemperatureF,Mean TemperatureF,Min TemperatureF,Max Dew PointF,MeanDew PointF,Min DewpointF,Max Humidity, Mean Humidity, Min Humidity, Max Sea Level PressureIn, Mean Sea Level PressureIn, Min Sea Level PressureIn, Max VisibilityMiles, Mean VisibilityMiles, Min VisibilityMiles, Max Wind SpeedMPH, Mean Wind SpeedMPH, Max Gust SpeedMPH,PrecipitationIn, CloudCover, Events, WindDirDegrees
2014-6-1,89,78,67,69,67,65,95,70,46,30.01,29.91,29.78,10,10,7,23,12,28,0.00,3,Rain,191
2014-6-2,84,74,64,67,64,60,97,75,46,29.93,29.86,29.78,10,10,5,20,11,25,0.28,3,Rain,255
2014-6-3,83,71,59,65,59,54,96,68,39,30.04,29.95,29.85,10,10,3,14,6,,0.64,2,Rain,32
2014-6-4,77,70,61,66,63,59,96,83,67,29.91,29.82,29.58,10,10,5,25,9,31,0.27,5,Rain,66
2014-6-5,75,66,58,60,58,55,96,76,52,29.99,29.93,29.88,10,9,4,20,9,25,0.00,2,,124
2014-6-6,83,70,57,64,61,56,96,73,46,30.00,29.95,29.91,10,10,7,9,3,,0.00,2,,138
2014-6-7,70,64,59,66,63,58,96,91,82,29.97,29.91,29.85,10,8,2,20,7,25,0.80,3,Rain,71
2014-6-8,68,63,58,59,58,56,97,86,70,30.08,30.03,29.97,10,9,5,12,7,,0.00,5,,25
2014-6-9,76,66,57,58,55,48,96,69,45,30.02,29.94,29.85,10,9,5,15,8,20,0.00,2,,77
2014-6-10,67,62,59,62,59,56,94,85,72,29.88,29.85,29.81,10,9,4,15,10,21,0.15,7,Rain,48
2014-6-11,82,70,60,62,58,55,90,67,40,29.82,29.80,29.77,10,10,10,15,9,18,0.00,4,,345
2014-6-12,77,68,58,63,54,47,90,63,37,30.00,29.89,29.78,10,10,10,20,10,25,0.00,2,,300
2014-6-13,76,61,47,51,45,38,89,56,28,30.10,30.04,29.98,10,10,10,12,7,,0.00,0,,303
2014-6-14,81,67,53,55,52,50,87,58,35,30.02,29.91,29.79,10,10,10,29,13,34,0.00,0,,151
2014-6-15,83,74,65,64,59,53,84,63,43,29.97,29.81,29.63,10,10,10,23,16,33,0.00,3,Rain,206
2014-6-16,89,74,60,73,67,59,96,75,52,30.03,29.92,29.75,10,10,10,28,9,34,0.00,2,,167
2014-6-17,88,75,62,74,68,61,96,76,60,29.97,29.86,29.78,10,10,4,30,12,51,0.35,5,Rain,177
2014-6-18,91,80,70,75,72,65,87,77,56,29.92,29.87,29.84,10,10,10,20,11,24,0.00,5,,170
2014-6-19,85,75,65,73,70,65,98,85,66,30.02,29.95,29.89,10,10,2,31,9,56,0.61,4,Rain,164
2014-6-20,88,76,63,71,65,54,98,74,32,30.03,29.99,29.93,10,9,1,10,4,,0.01,1,,237
2014-6-21,85,76,68,68,65,60,89,69,47,29.97,29.93,29.87,10,10,10,13,6,21,0.00,0,,241
2014-6-22,85,74,65,73,68,64,98,88,65,29.91,29.86,29.76,10,10,1,17,7,47,0.92,3,Rain,130
2014-6-23,78,72,65,71,67,65,98,86,70,29.91,29.87,29.82,10,9,3,8,3,,0.01,5,Rain,332
2014-6-24,83,72,61,67,63,60,96,74,45,29.99,29.95,29.90,10,10,10,12,6,,0.00,1,,304
2014-6-25,86,74,61,66,61,56,94,68,37,30.04,30.01,29.97,10,10,10,8,5,,0.00,0,,249
2014-6-26,83,74,65,72,68,63,93,81,61,30.03,29.97,29.90,10,10,5,13,5,,0.14,2,Rain,142
2014-6-27,83,76,68,74,70,66,96,86,70,29.94,29.89,29.83,10,10,7,18,9,25,0.06,3,Rain,151
2014-6-28,85,76,67,74,70,67,97,86,66,29.91,29.86,29.80,10,9,2,24,13,43,0.75,4,Rain,169
2014-6-29,83,74,66,76,71,66,98,90,75,29.97,29.88,29.77,10,8,3,22,8,28,0.06,5,Rain,201
2014-6-30,81,73,64,77,70,64,98,92,81,29.83,29.74,29.59,10,8,2,18,8,31,1.09,5,Rain,145